(89) Julia

Orbital Elements

The following orbital elements are taken from MPC 30777:
    (89) Julia
Epoch 2007 Oct. 27.0 TT = JDT 2454400.5                 Goffin
M 201.83907              (2000.0)            P               Q
n   0.24212616     Peri.   44.94924     +0.97742473     +0.03847936
a   2.5494211      Node   311.64941     -0.14955025     +0.82058110
e   0.1840042      Incl.   16.14261     +0.14925020     +0.57023329
P   4.07           H    6.60          G   0.15           U   0
From 722 observations at 59 oppositions, 1866-1995, mean residual 0".54.
An explanation of the orbital elements is available.

These orbital elements are also available in forms suitable for loading into a number of popular planetarium-type software programs.


Ephemeris

The following ephemeris is at intervals of five days. A daily ephemeris covering the same time interval is also available.

Personalized ephemerides for this object (and others) can be generated using the MPES.

Date    TT    R. A. (2000) Decl.     Delta      r     Elong.  Phase     V
 
2008 03 01    15 04.61   -37 03.4    2.454    2.882   105.5    19.3    11.8
2008 03 06    15 06.03   -37 43.8    2.385    2.875   109.7    19.0    11.7
2008 03 11    15 06.79   -38 22.3    2.318    2.869   113.9    18.4    11.7
2008 03 16    15 06.82   -38 58.7    2.254    2.862   118.3    17.8    11.6
2008 03 21    15 06.12   -39 32.4    2.193    2.856   122.6    17.1    11.5
2008 03 26    15 04.64   -40 02.9    2.135    2.849   127.0    16.2    11.4
2008 03 31    15 02.40   -40 29.6    2.081    2.842   131.4    15.3    11.3
2008 04 05    14 59.38   -40 51.8    2.031    2.835   135.8    14.2    11.2
2008 04 10    14 55.64   -41 08.7    1.986    2.828   140.1    13.1    11.1
2008 04 15    14 51.24   -41 19.9    1.946    2.821   144.1    12.0    11.0
2008 04 20    14 46.29   -41 24.6    1.911    2.813   147.9    10.9    10.9
2008 04 25    14 40.92   -41 22.5    1.883    2.806   151.1    10.0    10.9
2008 04 30    14 35.27   -41 13.3    1.860    2.798   153.5     9.2    10.8
2008 05 05    14 29.50   -40 57.1    1.844    2.791   154.9     8.8    10.8
2008 05 10    14 23.80   -40 34.1    1.834    2.783   155.1     8.8    10.7
2008 05 15    14 18.35   -40 05.1    1.831    2.775   154.0     9.2    10.7
2008 05 20    14 13.30   -39 30.9    1.833    2.767   151.8    10.0    10.8
2008 05 25    14 08.78   -38 52.6    1.842    2.759   148.8    11.0    10.8
2008 05 30    14 04.90   -38 11.2    1.857    2.750   145.1    12.2    10.9
2008 06 04    14 01.73   -37 28.1    1.877    2.742   141.2    13.4    10.9
2008 06 09    13 59.34   -36 44.2    1.902    2.734   137.0    14.7    11.0
2008 06 14    13 57.73   -36 00.9    1.932    2.725   132.7    15.9    11.1
2008 06 19    13 56.93   -35 18.8    1.967    2.716   128.3    17.1    11.1
2008 06 24    13 56.89   -34 38.8    2.005    2.708   124.0    18.1    11.2
2008 06 29    13 57.62   -34 01.4    2.046    2.699   119.8    19.1    11.3
2008 07 04    13 59.06   -33 27.1    2.090    2.690   115.6    19.9    11.3
2008 07 09    14 01.19   -32 56.1    2.137    2.681   111.5    20.7    11.4
2008 07 14    14 03.98   -32 28.6    2.185    2.672   107.4    21.3    11.5
2008 07 19    14 07.36   -32 04.6    2.235    2.663   103.5    21.8    11.5
2008 07 24    14 11.31   -31 44.0    2.287    2.653    99.7    22.2    11.6
2008 07 29    14 15.79   -31 26.8    2.339    2.644    95.9    22.5    11.6

Back to Bright Minor Planets

Astronomical Headlines Index

MPC